Weather History for KDXX - February, 2013

Change the Weather History Date:

Saturday, February 2, 2013

  Actual Average (KAQP) Record (KAQP)
Temperature  
Mean Temperature 9 °F -  
Max Temperature 17 °F 22 °F 44 °F (2012)
Min Temperature 1 °F 5 °F -22 °F (2001)
Degree Days  
Heating Degree Days 56    
Moisture  
Dew Point 5 °F    
Average Humidity 82    
Maximum Humidity 93    
Minimum Humidity 72    
Precipitation  
Precipitation 0.00 in - - ()
Sea Level Pressure  
Sea Level Pressure 30.07 in    
Wind  
Wind Speed 8 mph (North)    
Max Wind Speed 24 mph    
Max Gust Speed 31 mph    
Visibility 8 miles    
Events Snow    
Averages and records for this station are not official NWS values.
T = Trace of Precipitation, MM = Missing Value Source: NWS Daily Summary

Daily Weather History Graph

Daily Weather History Graph

Search for Another Location

Airport or City:

Trip Planner

Search our weather history database for the weather conditions in past years. The results will help you decide how hot, cold, wet, or windy it might be!

Date:

Astronomy

Feb. 02, 2013 Rise Set
Actual Time 7:42 AM CST 5:34 PM CST
Civil Twilight 7:11 AM CST 6:05 PM CST
Nautical Twilight 6:36 AM CST 6:40 PM CST
Astronomical Twilight 6:02 AM CST 7:15 PM CST
Moon 12:01 AM CST (2/2) 10:33 AM CST (2/2)
Length of Visible Light 10h 53m
Length of Day
9h 51m
Waning Gibbous, 59% of the Moon is Illuminated
Feb 2
Waning Gibbous
Feb 3
Last Quarter
Feb 10
New
Feb 17
First Quarter
Feb 25
Full

Hourly Weather History & Observations

Time (CST) Temp. Windchill Dew Point Humidity Pressure Visibility Wind Dir Wind Speed Gust Speed Precip Events Conditions
12:14 AM 8.6 °F -1.3 °F 3.2 °F 79% 30.08 in 10.0 mi NW 5.8 mph - N/A   Scattered Clouds
12:33 AM 8.6 °F -2.6 °F 3.2 °F 79% 30.09 in 10.0 mi NW 6.9 mph - N/A   Mostly Cloudy
12:54 AM 6.8 °F -4.8 °F 3.2 °F 85% 30.09 in 10.0 mi NW 6.9 mph - N/A   Scattered Clouds
1:13 AM 6.8 °F -4.8 °F 3.2 °F 85% 30.09 in 10.0 mi NW 6.9 mph - N/A   Clear
1:34 AM 6.8 °F -5.9 °F 1.4 °F 79% 30.10 in 10.0 mi NW 8.1 mph - N/A   Clear
1:53 AM 6.8 °F -6.9 °F 1.4 °F 79% 30.11 in 10.0 mi NW 9.2 mph - N/A   Clear
2:14 AM 3.2 °F -10.3 °F -0.4 °F 85% 30.12 in 10.0 mi NW 8.1 mph - N/A   Clear
2:34 AM 3.2 °F -11.3 °F -0.4 °F 85% 30.12 in 10.0 mi NW 9.2 mph - N/A   Clear
2:53 AM 3.2 °F -12.2 °F -0.4 °F 85% 30.13 in 10.0 mi NNW 10.4 mph - N/A   Scattered Clouds
3:14 AM 5.0 °F -10.8 °F 1.4 °F 85% 30.13 in 10.0 mi NNW 11.5 mph - N/A   Mostly Cloudy
3:34 AM 5.0 °F -10.8 °F 1.4 °F 85% 30.13 in 10.0 mi North 11.5 mph - N/A   Overcast
3:53 AM 5.0 °F -10.8 °F -0.4 °F 78% 30.14 in 10.0 mi NNW 11.5 mph - N/A   Overcast
4:14 AM 5.0 °F -8.1 °F -0.4 °F 78% 30.14 in 10.0 mi North 8.1 mph - N/A   Overcast
4:34 AM 5.0 °F -8.1 °F -0.4 °F 78% 30.15 in 10.0 mi North 8.1 mph - N/A   Overcast
4:53 AM 5.0 °F -9.1 °F -0.4 °F 78% 30.15 in 10.0 mi North 9.2 mph - N/A   Overcast
5:14 AM 3.2 °F -11.3 °F -0.4 °F 85% 30.16 in 10.0 mi North 9.2 mph - N/A   Overcast
5:34 AM 3.2 °F -11.3 °F -2.2 °F 78% 30.17 in 10.0 mi North 9.2 mph - N/A   Overcast
6:14 AM 3.2 °F -7.8 °F -2.2 °F 78% 30.17 in 10.0 mi North 5.8 mph - N/A   Overcast
6:33 AM 3.2 °F -7.8 °F -2.2 °F 78% 30.16 in 10.0 mi North 5.8 mph - N/A   Overcast
6:54 AM 3.2 °F -7.8 °F -2.2 °F 78% 30.16 in 10.0 mi North 5.8 mph - N/A   Overcast
7:14 AM 1.4 °F -9.9 °F -2.2 °F 85% 30.16 in 10.0 mi North 5.8 mph - N/A   Overcast
7:33 AM 1.4 °F -6.2 °F -4.0 °F 78% 30.16 in 10.0 mi North 3.5 mph - N/A   Scattered Clouds
7:54 AM 1.4 °F - -4.0 °F 78% 30.16 in 10.0 mi Calm Calm - N/A   Clear
8:14 AM 1.4 °F - -2.2 °F 85% 30.17 in 10.0 mi Calm Calm - N/A   Clear
8:33 AM 1.4 °F - -2.2 °F 85% 30.17 in 10.0 mi Calm Calm - N/A   Clear
8:54 AM 1.4 °F - -2.2 °F 85% 30.16 in 10.0 mi Calm Calm - N/A   Clear
9:14 AM 1.4 °F - -2.2 °F 85% 30.15 in 10.0 mi Calm Calm - N/A   Clear
9:33 AM 1.4 °F - -2.2 °F 85% 30.15 in 10.0 mi Calm Calm - N/A   Clear
9:54 AM 3.2 °F - -2.2 °F 78% 30.16 in 10.0 mi Calm Calm - N/A   Scattered Clouds
10:13 AM 3.2 °F - -2.2 °F 78% 30.16 in 10.0 mi Calm Calm - N/A   Scattered Clouds
10:34 AM 3.2 °F - -2.2 °F 78% 30.16 in 3.0 mi Calm Calm - N/A Snow Light Snow
10:54 AM 3.2 °F - -2.2 °F 78% 30.15 in 4.0 mi Calm Calm - N/A Snow Light Snow
11:13 AM 5.0 °F - -0.4 °F 78% 30.15 in 2.5 mi Calm Calm - N/A Snow Light Snow
11:34 AM 6.8 °F -0.1 °F -0.4 °F 72% 30.15 in 3.0 mi South 3.5 mph - N/A Snow Light Snow
11:54 AM 6.8 °F -4.8 °F 1.4 °F 79% 30.13 in 7.0 mi South 6.9 mph - N/A   Clear
12:13 PM 6.8 °F -4.8 °F 1.4 °F 79% 30.11 in 7.0 mi South 6.9 mph - N/A Snow Light Snow
12:34 PM 6.8 °F -5.9 °F 1.4 °F 79% 30.08 in 7.0 mi SSE 8.1 mph - N/A Snow Light Snow
12:54 PM 8.6 °F -4.7 °F 3.2 °F 79% 30.06 in 10.0 mi South 9.2 mph - N/A   Overcast
1:13 PM 8.6 °F -5.5 °F 3.2 °F 79% 30.05 in 10.0 mi South 10.4 mph - N/A   Overcast
1:34 PM 8.6 °F -6.3 °F 3.2 °F 79% 30.05 in 10.0 mi South 11.5 mph - N/A   Mostly Cloudy
1:54 PM 10.4 °F -3.3 °F 5.0 °F 79% 30.04 in 10.0 mi SSE 10.4 mph - N/A   Overcast
2:13 PM 10.4 °F -3.3 °F 5.0 °F 79% 30.02 in 10.0 mi SSE 10.4 mph - N/A   Overcast
2:34 PM 10.4 °F -4.1 °F 6.8 °F 85% 29.99 in 2.5 mi SSE 11.5 mph - N/A Snow Light Snow
2:54 PM 12.2 °F -2.5 °F 8.6 °F 85% 29.98 in 2.0 mi SSE 12.7 mph - N/A Snow Light Snow
3:14 PM 12.2 °F -2.5 °F 8.6 °F 85% 29.96 in 2.5 mi SSE 12.7 mph - N/A Snow Light Snow
3:33 PM 12.2 °F -0.2 °F 8.6 °F 85% 29.96 in 1.2 mi SSE 9.2 mph - N/A Snow Light Snow
3:54 PM 12.2 °F -1.8 °F 10.4 °F 92% 29.95 in 4.0 mi SSE 11.5 mph - N/A Snow Light Snow
4:14 PM 14.0 °F 1.2 °F 10.4 °F 86% 29.95 in 5.0 mi SE 10.4 mph - N/A Snow Light Snow
4:33 PM 14.0 °F 2.0 °F 10.4 °F 86% 29.94 in 7.0 mi SE 9.2 mph - N/A Snow Light Snow
4:54 PM 15.8 °F 5.1 °F 10.4 °F 79% 29.93 in 7.0 mi SE 8.1 mph - N/A Snow Light Snow
5:14 PM 15.8 °F 7.2 °F 12.2 °F 86% 29.93 in 4.0 mi SE 5.8 mph - N/A Snow Light Snow
5:33 PM 15.8 °F 6.1 °F 12.2 °F 86% 29.92 in 10.0 mi SE 6.9 mph - N/A   Overcast
5:54 PM 15.8 °F 6.1 °F 12.2 °F 86% 29.92 in 10.0 mi ESE 6.9 mph - N/A   Overcast
6:13 PM 17.6 °F 12.3 °F 14.0 °F 86% 29.92 in 7.0 mi ESE 3.5 mph - N/A Snow Light Snow
6:34 PM 17.6 °F 9.3 °F 14.0 °F 86% 29.93 in 10.0 mi ENE 5.8 mph - N/A   Overcast
6:54 PM 17.6 °F - 14.0 °F 86% 29.94 in 10.0 mi Calm Calm - N/A Snow Light Snow
7:14 PM 17.6 °F 8.2 °F 14.0 °F 86% 29.96 in 10.0 mi NNE 6.9 mph - N/A   Overcast
7:34 PM 15.8 °F 7.2 °F 12.2 °F 86% 29.97 in 10.0 mi North 5.8 mph - N/A   Overcast
7:53 PM 17.6 °F 4.3 °F 15.8 °F 93% 29.98 in 10.0 mi NNW 12.7 mph - N/A   Overcast
8:14 PM 17.6 °F 1.3 °F 15.8 °F 93% 29.99 in 10.0 mi NNW 19.6 mph - N/A   Overcast
8:33 PM 17.6 °F 0.1 °F 14.0 °F 86% 30.01 in 7.0 mi NNW 23.0 mph - N/A   Overcast
8:54 PM 17.6 °F 0.9 °F 14.0 °F 86% 30.02 in 4.0 mi NNW 20.7 mph 31.1 mph N/A   Overcast
9:14 PM 17.6 °F 0.1 °F 14.0 °F 86% 30.03 in 7.0 mi NNW 23.0 mph - N/A   Overcast
9:33 PM 17.6 °F 1.7 °F 12.2 °F 79% 30.04 in 10.0 mi NW 18.4 mph 23.0 mph N/A   Scattered Clouds
9:54 PM 17.6 °F 3.2 °F 12.2 °F 79% 30.04 in 10.0 mi NNW 15.0 mph - N/A   Overcast
10:14 PM 17.6 °F 2.2 °F 12.2 °F 79% 30.05 in 7.0 mi NNW 17.3 mph - N/A Snow Light Snow
10:33 PM 17.6 °F 2.7 °F 12.2 °F 79% 30.05 in 10.0 mi NNW 16.1 mph - N/A Snow Light Snow
10:54 PM 17.6 °F 1.3 °F 12.2 °F 79% 30.05 in 5.0 mi NW 19.6 mph 26.5 mph N/A Snow Light Snow
11:14 PM 15.8 °F -2.7 °F 10.4 °F 79% 30.07 in 3.0 mi NNW 24.2 mph - N/A Snow Light Snow
11:54 PM 15.8 °F -1.9 °F 10.4 °F 79% 30.07 in 4.0 mi NW 21.9 mph 26.5 mph N/A Snow Light Snow